Flag for Canada Weather past 2 weeks in Welland, Ontario, Canada

Now
29 °F

Chilly.


Feels Like: 21 °F
Forecast: N/A
Wind: 9 mph from Northwest

Location: Port Colborne Airport

Current Time: Dec 19, 2014 at 4:58:22 PM

Latest Report: Dec 19, 2014 at 4:00 PM


Visibility: N/A

Pressure: 30.23 "Hg

Humidity: 65%

Dew point: 18 °F

Location of WellandLocation

Historic Weather in Welland — Graph

°F

Welland temperature yesterday

Maximum temperature yesterday: 32 °F (at 10:00 AM)
Minimum temperature yesterday: 28 °F (at 11:00 PM)
Average temperature yesterday: 31 °F

Past Weeks' High & Low Weather Summary

 TemperatureHumidityPressure
High43 °F (Dec 16, 4:00 PM)99% (Dec 11, 6:00 AM)30.76 "Hg (Dec 11, 6:00 AM)
Low24 °F (Dec 8, 2:00 AM)31% (Dec 8, 12:00 PM)29.71 "Hg (Dec 16, 2:00 PM)
Average34 °F79%30.14 "Hg
* Reported Dec 4 3:00 PM — Dec 19 3:00 PM, Welland, Weather by CustomWeather, © 2014

Note: Actual official high and low records may vary slightly from our data, if they occured in-between our weather recording intervals... More about our weather records

Advertising

Welland weather history for previous 24 hours

 ConditionsComfort  
Time TempWeatherWind HumidityBarometerVisibility
3:00 PM
Dec 19
28 °FChilly.9 mph66%30.22 "HgN/A
2:00 PM27 °FChilly.10 mph69%30.22 "HgN/A
1:00 PM26 °FChilly.9 mph71%30.21 "HgN/A
12:00 PM26 °FChilly.9 mph69%30.22 "HgN/A
11:00 AM26 °FChilly.7 mph72%30.24 "HgN/A
10:00 AM25 °FChilly.8 mph71%30.24 "HgN/A
9:00 AM25 °FChilly.12 mph74%30.22 "HgN/A
8:00 AM28 °FChilly.10 mph68%30.20 "HgN/A
7:00 AM28 °FChilly.8 mph67%30.19 "HgN/A
6:00 AM28 °FChilly.10 mph67%30.16 "HgN/A
5:00 AM26 °FChilly.8 mph75%30.15 "HgN/A
4:00 AM25 °FChilly.10 mph76%30.16 "HgN/A
3:00 AM25 °FChilly.16 mph75%30.16 "HgN/A
2:00 AM26 °FChilly.10 mph79%30.14 "HgN/A
1:00 AM27 °FChilly.14 mph83%30.14 "HgN/A
12:00 AM28 °FChilly.13 mph79%30.13 "HgN/A
11:00 PM
Dec 18
28 °FChilly.9 mph80%30.13 "HgN/A
10:00 PM29 °FChilly.14 mph77%30.12 "HgN/A
9:00 PM30 °FChilly.13 mph77%30.11 "HgN/A
8:00 PM30 °FChilly.14 mph76%30.13 "HgN/A
7:00 PM31 °FChilly.13 mph82%30.13 "HgN/A
6:00 PM31 °FChilly.10 mph76%30.12 "HgN/A
5:00 PM32 °FChilly.14 mph74%30.11 "HgN/A
4:00 PM32 °FChilly.18 mph79%30.11 "HgN/A
Weather by CustomWeather, © 2014

See weather overviewHow to use our weather pages